Weather Roundup
Issued by NWS Springfield, MO

Home | Current Version | Previous Version | Text Only | Print | Product List | Glossary On
Versions: 1 2 3 4 5 6 7 8 9 10 11 12 13 14 15 16 17 18 19 20 21 22 23 24 25 26 27 28 29 30 31 32 33 34 35 36 37 38 39 40 41 42 43 44 45 46 47 48 49 50
000
NZUS99 KSGF 061559
HRRSGF

HOURLY WEATHER
NATIONAL WEATHER SERVICE SPRINGFIELD MO
1100 AM CDT MON JUL 06 2015

......SGF CWA......

CITY           SKY/WX    TMP DP  RH WIND       PRES   REMARKS
SPRINGFIELD    FAIR      80  73  79 S13       30.02F
JOPLIN         PTSUNNY   82  73  74 S17       29.99S
WEST PLAINS    PTSUNNY   80  71  74 S6        30.09F
ROLLA          FAIR      83  74  74 S14       30.02S
OSAGE BEACH    FAIR      82  72  69 S7        30.01S
BRANSON        CLOUDY    81  72  74 SW8       30.07S

......SURROUNDING SGF CWA......

CITY           SKY/WX    TMP DP  RH WIND       PRES   REMARKS
CHANUTE        FAIR      84  74  71 S14       29.95S HX  91
PARSONS        PTSUNNY   84  75  74 S10       29.96F HX  92
COFFEYVILLE    PTSUNNY   85  74  69 S13G22    29.95S HX  92
EMPORIA        FAIR      85  72  65 S17G23    29.91S HX  91
SILOAM SPRINGS CLOUDY    79  70  73 S14       30.05R
HARRISON AR    PTSUNNY   80  72  76 VRB7      30.07F
NEAR YELLVILLE FAIR      84  72  65 SW7       30.04S

......KANSAS AND MISSOURI......

CITY           SKY/WX    TMP DP  RH WIND       PRES   REMARKS
KANSAS CTY INT PTSUNNY   83  74  74 S10       29.92S
DOWNTOWN KC    FAIR      85  73  67 S12       29.91S HX  91
COLUMBIA       FAIR      81  73  76 SW14      29.99F
SEDALIA        FAIR      84  73  69 SW15G21   29.98F HX  90
ST JOSEPH      FAIR      82  74  76 S12       29.89F
ST LOUIS       NOT AVBL
SPIRIT OF STL  PTSUNNY   86  75  69 VRB7G16   29.99F HX  95
KIRKSVILLE     FAIR      78  71  79 SW9G18    29.94S
WICHITA        PTSUNNY   89  69  51 S20       29.88F HX  93
TOPEKA         FAIR      85  73  67 S13       29.89F HX  91
OLATHE         FAIR      82  73  74 SW10      29.93S

......TENNESSEE......

CITY           SKY/WX    TMP DP  RH WIND       PRES   REMARKS
MEMPHIS        CLOUDY    78  71  79 S9        30.14R
NASHVILLE      FAIR      81  72  74 S10       30.14R

......ARKANSAS.......

CITY           SKY/WX    TMP DP  RH WIND       PRES   REMARKS
FAYETTEVILLE   CLOUDY    78  72  81 S13       30.06R
FT SMITH       CLOUDY    83  71  67 SW15G21   30.02F
LITTLE ROCK    CLOUDY    80  71  74 W7        30.09F

......OKLAHOMA.......

CITY           SKY/WX    TMP DP  RH WIND       PRES   REMARKS
TULSA          CLOUDY    86  75  69 S16G24    29.96S HX  95
PONCA CITY     FAIR      88  71  57 S14G22    29.91S HX  94
MCALESTER      CLOUDY    81  73  76 S9        30.02S
OKLAHOMA CITY  PTSUNNY   84  74  71 S21G28    29.96S HX  91

......IOWA............

CITY           SKY/WX    TMP DP  RH WIND       PRES   REMARKS
DES MOINES     CLOUDY    78  72  81 E7        29.84F
QUAD CITIES    PTSUNNY   79  71  76 W12       29.94R

......ILLINOIS........

CITY           SKY/WX    TMP DP  RH WIND       PRES   REMARKS
QUINCY         FAIR      80  73  79 S10       29.96S
CHICAGO        PTSUNNY   80  68  66 S15       29.97S



USA.gov is the U.S. government's official web portal to all federal, state and local government web resources and services.